Find Kosmos-2580

NORAD ID: 62216 Int'l Des: 2024-230 Owner: VVKOV Country: RU operational
LEOCIRCULAR

Aktuelle Ansicht

3D-Globus wird geladen...

About Kosmos-2580

Kosmos-2580 (NORAD 62216) is a satellite launched Dec 4, 2024 by VVKOV of RU. It operates in LEO, CIRCULAR orbit with a mass of 6575.00 kg.

Nächste Überflüge

Passes for default location (London). Set your location on the main map for personalized predictions.

Höhenverlauf

Loading altitude history...

Zweizeiliger Elementsatz

1 62216U 24230A 26194.51615450 -.00000069 00000-0 43734-5 0 9999
2 62216 67.1495 346.8519 0005979 262.4803 97.5602 13.96674293 81819
Epoch: 13. Juli 2026 • Age: 15 hours

Aktueller Status

Höhe 906.8 km
Apogäum / Perigäum N/A
Geschwindigkeit 7.40 km/s
Subsatellitenpunkt 7.82°N, 174.25°W
Startdatum 4. Dez. 2024
Alter 1.6 years
Typ other

Technische Details

Klassifizierung Payload
Masse 6575.00 kg
Trockenmasse 6500.00 kg
Gesamtmasse 6575.00 kg
Länge 6.30 m
Durchmesser 2.70 m
Spannweite 6.30 m
Form Cyl + 2 Pan
Hersteller TSSKBP/ARSLO
Bus-Typ Yantar'-Lotos
Phasenstatus In Orbit
Besitzer/Staat VVKOV/RU

Most Searched